Weather in Shelayevo

Russia / Belgorod Oblast     50°07′16″N   38°04′16″E
temp.,
°C
wind,
m/s
gust,
m/s
humid.,
%
clouds,
%
prec.,
mm/h
press.,
hPa
HPBL,
m
20 january, thu
thu2000:00−20nw2210054 0.0 102110
03:00−21wnw1110044 0.0 10219
06:00−21sw1110034 0.0 10209
09:00−19ssw239940 0.0 102036
12:00−11ssw35915 0.0 1019174
15:00−9s47915 0.0 1017263
18:00−12sse489433 0.0 1016117
21:00−9s51388100 0.0 1015244
21 january, fri
fri2100:00−8s61484100 0.0 1013310
03:00−5sse71695100 0.4 1010457
06:00−3sse81896100 1.0 1006693
09:000ssw71398100 2.6 1005884
12:00−1ssw6119389 0.3 1004615
15:00−2wsw91393100 1.4 10051103
18:00−5sw7148780 0.1 1008490
21:00−6sw7149197 0.1 1008487
22 january, sat
sat2200:00−6sw7159066 0.0 1009438
03:00−8ssw5129357 0.0 1010282
06:00−10ssw4119546 0.0 1010189
09:00−11s4109524 0.0 1011167
12:00−7ssw489350 0.0 1012318
15:00−5s379382 0.0 1012356
18:00−8sse359796 0.0 101462
21:00−8s259785 0.1 101584
23 january, sun
sun2300:00−13s229977 0.1 101711
03:00−16se11100100 0.1 10189
06:00−14ne11100100 0.1 101920
09:00−9ne2396100 0.1 102090
12:00−7ne3494100 0.0 1021183
15:00−6nne4794100 0.0 1020311
18:00−7nne51193100 0.0 1021300
21:00−7n51193100 0.0 1021317
24 january, mon
mon2400:00−6nne61295100 0.6 1020441
03:00−6nne61295100 1.8 1019404
06:00−4ne4996100 0.4 1019332
09:00−6ne5995100 0.5 1020300
12:00−5ene5793100 0.2 1021333
15:00−4ne4793100 0.3 1020385
18:00−5ene3796100 0.8 1021365
21:00−7ne2397100 1.1 102253